Regional Weather Roundup
Issued by NWS

Home | Current Version | Previous Version | Graphics & Text | Print | Product List | Glossary On
Versions: 1 2 3 4 5 6 7 8 9 10 11 12 13 14 15 16 17 18 19 20 21 22 23 24 25 26 27 28 29 30 31 32 33 34 35 36 37 38 39 40 41 42 43 44 45 46 47 48 49 50
000
ASUS43 KDTX 211510
RWRMI
MICHIGAN HOURLY REGIONAL WEATHER ROUNDUP
NATIONAL WEATHER SERVICE DETROIT/PONTIAC MI
1000 AM EST TUE NOV 21 2017

NOTE: "FAIR" INDICATES FEW OR NO CLOUDS BELOW 12,000 FEET WITH NO
SIGNIFICANT WEATHER AND/OR OBSTRUCTION TO VISIBILITY.

MIZ047>049-052>055-059>063-066>070-074>076-081>083-211600-
SOUTHEAST LOWER MICHIGAN

CITY           SKY/WX    TMP DP  RH WIND       PRES   REMARKS
ADRIAN         CLOUDY    41  28  60 SW17G25   29.75S
ALMA           MOSUNNY   45  34  64 SW14G28   29.63R
ANN ARBOR      CLOUDY    43  29  57 S17G25    29.71S
BAD AXE        CLOUDY    45  30  57 SW15G26   29.60S
CARO           SUNNY     45  31  59 SW17G25   29.61S
DETROIT CITY   PTSUNNY  N/A N/A N/A SW20G28   29.71F
DETROIT        CLOUDY    44  29  55 SW20G33   29.74R
FLINT          SUNNY     45  30  55 SW16G25   29.66R
GROSSE ILE     PTSUNNY   44  30  57 SW17G28   29.73S
HILLSDALE      SUNNY     43  28  56 SW16G24   29.72R
HOWELL         SUNNY     45  31  59 SW16G22   29.68R

CITY           SKY/WX    TMP DP  RH WIND       PRES   REMARKS
JACKSON        SUNNY     45  29  53 SW22G29   29.70R
LAMBERTVILLE   MOSUNNY   46  29  51 SW16G26   29.76S
LANSING        SUNNY     45  31  58 SW21G26   29.67R
LAPEER         FAIR      44  29  54 SW15G22   29.66R
MASON          SUNNY     46  31  56 SW10G23   29.69R
MONROE         MOSUNNY   45  28  52 SW13      29.74S
MT. CLEMENS    PTSUNNY   44  29  57 SW20G29   29.68F
PONTIAC        PTSUNNY   42  29  59 SW16G28   29.67R
PORT HOPE        N/A     47  31  53 SW14G33   29.57R
PORT HURON     CLOUDY    43  27  52 SW13G24   29.68R
TRI CITIES     CLOUDY    44  33  65 SW23      29.61R
MIDLAND        FAIR      46  34  62 SW14      29.59S
TROY           CLOUDY    44  28  52 SW18G26   29.71R
SAGINAW HB     CLOUDY    45  32  61 SW16G24   29.61S
$$
MIZ043>046-050>051-056>058-064>065-071>073-077>080-211600-
SOUTHWEST LOWER MICHIGAN

CITY           SKY/WX    TMP DP  RH WIND       PRES   REMARKS
BATTLE CREEK   SUNNY     45  31  58 SW17G24   29.70R
BENTON HARBOR  CLOUDY    46  33  60 SW18G24   29.73R
BIG RAPIDS     CLOUDY    45  34  64 W20G26    29.59R
COLDWATER      SUNNY     45  28  52 SW18G29   29.73R
FREMONT        CLOUDY    46  37  70 W12G21    29.63R
HOLLAND        CLOUDY    47  38  71 W20G35    29.69R
GRAND RAPIDS   CLOUDY    46  37  71 SW16G23   29.66R
IONIA          FAIR      46  32  58 SW17G28   29.65R
KALAMAZOO      MOSUNNY   46  29  51 SW15      29.71R
LUDINGTON      CLOUDY    43  25  49 W13G21    29.63R
MARSHALL       SUNNY     44  30  58 SW15G26   29.70S
MOUNT PLEASANT SUNNY     47  35  62 SW18G25   29.58S
MUSKEGON       CLOUDY    47  36  65 W15G23    29.67R
SOUTH HAVEN    MOSUNNY   46  37  68 SW16G24   29.71R
$$
MIZ016>042-211600-
NORTHERN LOWER MICHIGAN

CITY           SKY/WX    TMP DP  RH WIND       PRES   REMARKS
ALPENA         SUNNY     47  35  63 SW13G20   29.48R
BEAVER ISLAND  PTSUNNY   39  26  59 W13G24    29.53R WCI  32
BELLAIRE       PTSUNNY   44  29  56 W10G18    29.55R
CADILLAC       CLOUDY    43  29  58 W15G25    29.55R
CHARLEVOIX     PTSUNNY   43  29  57 W21G32    29.55R
FRANKFORT      PTSUNNY   43  26  51 W17G24    29.60R
GAYLORD        PTSUNNY   42  27  55 W10G26    29.49R
GRAYLING       PTSUNNY   45  27  50 W20G28    29.52R
HARBOR SPRINGS CLOUDY    43  28  55 W12G24    29.50R
MANISTEE       PTSUNNY   44  26  49 W20G25    29.61R
OSCODA         SUNNY     46  32  58 SW18G24   29.53R
PELLSTON       CLOUDY    42  29  59 W14G29    29.50R
ROGERS CITY    CLOUDY    45  34  65 W9        29.47R
TRAVERSE CITY  PTSUNNY   44  25  47 W15       29.56R
$$
MIZ007>008-015-211600-
EASTERN UPPER MICHIGAN

CITY           SKY/WX    TMP DP  RH WIND       PRES   REMARKS
KINROSS        MOSUNNY   37  26  64 W21G28    29.46R WCI  26
MACKINAC ISLAN PTSUNNY   41  27  58 W15G30    29.47R
NEWBERRY       CLOUDY    33  26  73 W24G37    29.48R WCI  20
S. S. MARIE    CLOUDY    38  25  59 W23G43    29.45R WCI  27
MUNISING         N/A     33  23  66 NW15G23   29.55R WCI  23
$$
MIZ004>006-011>014-085-211600-
CENTRAL UPPER MICHIGAN

CITY           SKY/WX    TMP DP  RH WIND       PRES   REMARKS
MANISTIQUE     PTSUNNY   33  17  50 NW15G28   29.53R WCI  23
ESCANABA       CLOUDY    35  21  56 NW17G29   29.58R WCI  25
MENOMINEE      MOSUNNY   35  16  45 NW17G28   29.63R WCI  25
SAWYER-GWINN   CLOUDY    28  19  69 W20G31    29.55R WCI  15
$$
MIZ001>003-009>011-084-211600-
WESTERN UPPER MICHIGAN

CITY           SKY/WX    TMP DP  RH WIND       PRES   REMARKS
IRON MOUNTAIN  CLOUDY    30  14  51 NW18G36   29.59R WCI  18
HOUGHTON       SNOW      23  17  78 NW28G39   29.58R VSB 1/2 WCI   6
COPPER HARBOR    N/A     28  22  78 N37G44    29.55R WCI  11
IRONWOOD       HVY SNOW  21  19  93 NW18G31   29.73R VSB 1/4 WCI   6
$$

ABBREVIATIONS USED IN REMARKS
   TC - TEMPERATURE IN CELSIUS
  WCI - WIND CHILL INDEX
   HX - HEAT INDEX
  VSB - VISIBILITY





USA.gov is the U.S. government's official web portal to all federal, state and local government web resources and services.